Skip Page Navigation
NASA JPL Caltech
NASA Logo - Jet Propulsion Laboratory + View the NASA Portal
+ Near-Earth Object (NEO) Program
Search JPL
JPL Home Earth Solar System Stars & Galaxies Technology
JPL Solar System Dynamics
BODIES ORBITS EPHEMERIDES TOOLS PHYSICAL DATA DISCOVERY FAQ SITE MAP
JPL Small-Body Database Browser
Search: [ help ]  
5371 (1987 VG1)
Classification: Main-belt Asteroid          SPK-ID: 2005371
Ephemeris | Orbit Diagram | Orbital Elements | Physical Parameters | Discovery Circumstances | Close-Approach Data ]

[ show orbit diagram ]
Orbital Elements at Epoch 2456400.5 (2013-Apr-18.0) TDB
Reference: JPL 1 (heliocentric ecliptic J2000)
 Element Value Uncertainty (1-sigma)   Units 
e .1006222549671744 8.9963e-08  
a 3.165698782182733 4.2309e-08 AU
q 2.847159032172668 2.8493e-07 AU
i 9.587259454120778 8.2929e-06 deg
node 262.4945242951297 5.7703e-05 deg
peri 76.00724337826962 7.2399e-05 deg
M 246.9217581396441 5.0538e-05 deg
tp 2457046.718455983813
(2015-Jan-24.21845598)
0.00029585 JED
period 2057.324559763371
5.63
4.1244e-05
1.129e-07
d
yr
n .174984544024209 3.508e-09 deg/d
Q 3.484238532192797 4.6566e-08 AU
  Orbit Determination Parameters
   # obs. used (total)      863  
   data-arc span      13264 days (36.31 yr)  
   first obs. used      1976-12-18  
   last obs. used      2013-04-12  
   planetary ephem.      DE405  
   SB-pert. ephem.      SB405-CPV-2  
   condition code      0  
   fit RMS      .56301  
   data source      ORB  
   producer      Otto Matic  
   solution date      2013-Apr-29 13:16:37  

Additional Information
 Earth MOID = 1.85726 AU 
 T_jup = 3.174 
[ show covariance matrix ]

Ephemeris | Orbit Diagram | Orbital Elements | Physical Parameters | Discovery Circumstances | Close-Approach Data ]

Physical Parameter Table
Parameter Symbol Value Units Sigma Reference Notes
absolute magnitude H 11.8 mag n/a PDS3 (MPC 21091)  

5371 (1987 VG1)          Discovered 1987-Nov-15 by Ueda and Kaneda at Kushiro (399)
Reference: DISCOVERY.DBLast Updated: 2003-08-29

[ show close-approach data ]
Alternate Designations
 1987 VG1 = 1976 YA5 = 1980 NF = 1981 UE13 
Ephemeris | Orbit Diagram | Orbital Elements | Physical Parameters | Discovery Circumstances | Close-Approach Data ]
ABOUT SSD CREDITS/AWARDS PRIVACY/COPYRIGHT GLOSSARY LINKS
FirstGov 2013-May-23 23:38 UT
(server date/time)  
NASA Home Page
Site Manager:   Donald K. Yeomans
Webmaster  Alan B. Chamberlin